Wind_Speed
1 1 3 4 8 13 15 12 7 7 11 7 6 8 8 9 13 15 17 18 18 17 20 22 21 17 13 13 10 8 6 6 7 7 8 9 11 14 15 13 12 11 10 9
4 2 2 6 10 11 15 14 15 16 19 13 7 5 8 11 14 16 16 18 18 18 22 22 21 17 15 12 10 8 7 8 9 9 10 11 13 14 15 14 13 13 14 11
3 1 2 5 15 17 11 11 12 12 11 4 6 9 10 12 14 16 16 18 19 19 21 20 21 16 15 12 10 9 8 9 10 11 11 13 13 14 15 13 13 14 15 11
1 2 3 1 1 2 12 15 13 16 9 7 5 3 5 9 13 15 17 18 17 18 18 19 19 15 13 12 10 8 8 10 10 11 13 14 14 15 15 13 13 12 12 10
3 4 6 9 4 4 5 5 4 12 10 4 2 4 10 11 14 15 15 17 18 17 16 18 18 16 14 12 9 9 8 9 12 12 14 15 16 16 16 14 13 13 10 8
3 3 4 3 3 0 2 6 6 2 2 6 5 4 6 9 13 13 16 17 16 16 16 18 16 15 16 12 9 7 9 10 11 12 14 17 17 17 16 14 13 10 8 7
4 4 5 1 1 3 3 3 3 2 3 7 7 8 4 1 8 14 16 17 17 18 18 16 14 16 13 9 7 7 8 9 12 13 15 17 17 17 17 14 11 7 7 8
2 3 4 5 5 3 3 2 4 4 5 9 12 6 6 4 4 8 13 13 15 14 13 13 11 9 8 6 5 6 8 10 14 14 13 14 16 17 13 11 9 7 7 8
6 1 3 8 6 3 3 7 8 8 9 8 11 12 9 7 6 8 12 13 14 15 13 9 7 5 4 5 5 7 9 12 13 12 13 13 13 11 10 9 8 8 8 8
2 3 9 9 10 11 11 11 11 11 11 11 12 12 10 7 7 10 12 13 14 16 12 7 2 2 4 4 6 9 11 11 11 10 10 10 9 9 11 9 9 8 8 11
5 11 8 8 8 7 7 8 9 9 9 10 10 9 6 7 8 12 13 12 11 10 4 4 3 4 5 6 8 9 9 9 10 9 8 11 11 11 11 11 11 10 8 8
5 8 5 8 5 6 9 10 10 10 9 4 4 0 5 8 12 12 13 11 9 3 2 3 4 6 7 8 8 7 8 10 10 10 10 10 10 11 14 16 14 14 11 10
5 7 9 10 8 10 8 10 9 8 8 8 11 11 17 17 15 15 12 5 4 7 6 5 7 9 9 9 7 8 11 12 10 10 10 10 10 9 11 10 17 18 16 14
7 7 4 10 5 9 11 14 18 19 18 18 20 19 16 15 14 8 4 8 9 8 7 8 10 11 9 7 8 11 13 13 12 13 12 12 11 11 10 12 12 14 16 16
11 9 6 8 11 10 12 14 15 14 15 16 16 16 12 7 6 6 8 9 9 8 10 11 12 12 9 10 11 13 13 13 13 14 13 13 13 15 15 14 15 14 13 14
6 9 11 13 11 11 12 13 12 9 9 9 8 6 4 4 7 9 9 9 8 10 11 12 16 16 13 13 13 13 13 14 13 13 15 16 15 16 16 14 14 15 15 15
2 7 9 12 12 11 10 9 8 6 5 2 4 6 9 9 9 10 9 9 12 16 19 21 24 17 16 15 15 15 14 14 14 15 14 15 17 14 17 18 18 18 18 17
13 12 13 12 10 9 7 8 5 1 5 8 8 7 6 7 8 10 12 14 17 20 23 23 23 23 21 17 16 17 17 17 16 16 16 16 18 20 20 21 23 21 20 18
14 13 12 10 8 6 5 5 5 5 7 9 9 9 9 9 9 11 12 14 17 14 18 17 18 19 21 18 18 17 19 20 21 18 18 18 19 19 19 21 22 23 22 19
10 9 8 8 8 8 7 7 8 7 7 8 9 9 11 11 11 13 13 14 20 20 22 21 20 21 22 20 19 17 19 21 20 19 21 20 19 20 19 21 22 22 21 21
7 7 7 8 9 10 10 9 11 11 9 11 11 10 13 19 18 18 14 15 18 19 21 23 20 19 19 19 19 19 22 21 19 20 22 22 19 19 20 19 19 19 20 21
4 5 6 7 10 11 13 13 13 14 15 16 15 14 14 15 18 17 15 19 20 21 25 25 24 24 25 27 23 25 25 20 16 18 22 22 20 19 14 13 13 14 14 15
5 6 9 11 10 8 10 13 12 11 12 13 13 15 16 16 16 18 18 19 24 27 30 28 29 32 32 31 29 27 25 17 15 8 11 13 10 8 7 10 10 12 14 16
11 12 11 9 9 10 11 14 13 12 13 13 13 15 17 20 19 18 22 27 28 31 32 32 33 35 36 29 27 26 22 9 2 5 7 8 8 8 8 10 11 12 14 15
12 11 10 8 8 9 10 13 12 12 14 14 15 16 18 19 21 26 25 28 28 31 31 27 22 17 11 9 8 6 1 6 4 4 5 6 7 8 9 10 12 13 15 16
9 8 8 9 9 9 10 11 12 13 16 17 17 19 20 20 22 24 24 25 24 21 19 18 18 16 15 14 13 13 11 13 10 7 7 7 9 10 11 13 14 15 16 18
10 8 7 6 8 9 10 10 12 14 15 16 17 18 19 20 20 19 20 20 20 18 17 17 17 17 15 14 14 13 11 10 11 11 10 10 10 11 13 15 16 17 18 19
Wind_Direction
174 111 213 252 224 201 213 230 229 274 253 275 253 237 225 199 196 196 191 187 188 186 184 185 185 184 186 176 175 191 220 254 270 268 275 293 305 317 320 308 299 293 300 301
207 204 248 255 240 229 230 245 256 266 271 274 255 255 203 199 196 200 198 196 192 194 193 193 189 190 184 177 189 204 233 260 270 268 272 288 302 313 313 303 296 291 285 288
232 357 263 283 241 224 224 226 242 252 268 168 213 230 226 212 207 207 204 200 200 199 199 196 193 192 187 189 195 214 244 265 272 268 269 288 295 303 311 306 298 295 289 279
112 201 226 12 112 315 242 257 241 260 256 273 287 272 270 221 211 213 210 208 205 203 202 198 195 195 193 197 205 228 250 271 275 275 278 289 289 293 306 299 299 295 295 271
179 214 315 274 193 202 205 284 291 254 273 255 244 266 245 220 220 222 216 213 208 205 200 194 190 193 198 206 226 243 260 277 286 287 284 290 290 287 294 293 292 289 283 257
150 220 246 56 74 137 224 270 34 277 269 203 193 250 289 184 212 217 215 208 201 194 183 182 187 184 203 211 226 248 275 283 287 289 291 291 289 282 286 281 277 276 262 243
182 241 280 299 132 173 240 20 21 259 215 192 212 257 355 309 218 216 209 203 194 182 180 179 177 186 192 200 233 271 276 286 291 294 295 290 285 280 279 268 265 255 234 229
137 207 269 156 142 226 9 339 294 283 265 247 252 287 281 270 243 213 195 187 178 167 153 143 159 184 184 228 268 268 281 290 294 298 296 291 288 284 263 256 253 235 228 235
219 246 113 194 273 315 304 291 293 292 303 272 263 259 251 239 195 181 176 163 145 133 127 123 142 184 239 269 261 271 284 291 296 297 300 303 295 271 250 249 244 241 235 258
242 184 241 248 260 270 274 271 288 289 282 284 271 276 250 226 179 161 149 144 131 122 114 103 138 279 266 271 274 282 289 291 294 304 316 310 288 260 253 247 250 239 254 283
249 278 275 261 249 270 288 288 285 289 287 295 294 283 242 188 160 138 124 110 100 97 118 200 233 282 285 275 282 286 282 285 293 305 310 305 291 270 254 263 242 238 267 285
259 311 296 300 346 332 301 314 329 320 311 334 309 175 143 127 127 120 96 78 76 97 237 255 271 273 276 283 276 266 273 284 292 309 308 298 287 278 262 251 234 232 244 264
289 319 304 305 322 16 2 8 17 29 42 63 64 99 116 107 91 77 68 78 236 256 246 248 260 269 278 276 258 254 269 278 291 297 292 294 289 278 272 239 241 244 249 258
358 324 286 40 21 35 62 69 71 72 74 82 90 86 78 72 83 109 178 237 243 243 256 265 269 276 279 265 259 269 271 279 283 284 287 292 286 265 262 264 254 244 253 250
19 31 55 66 63 66 83 87 84 84 83 77 77 86 96 117 180 228 253 244 246 251 254 255 266 274 271 257 261 271 278 281 282 286 281 279 278 274 272 270 254 256 260 260
53 67 72 74 75 75 87 92 91 85 85 97 115 155 186 240 255 254 244 231 237 260 264 259 270 275 264 258 267 275 280 275 274 287 285 280 272 271 270 255 249 254 259 265
188 78 87 88 90 89 86 94 102 122 154 195 262 263 266 277 282 275 263 261 274 277 278 272 269 265 256 266 268 265 273 273 272 280 288 281 271 271 269 262 255 257 259 259
87 92 99 113 120 124 125 130 138 57 353 344 337 328 311 288 274 288 288 288 286 286 285 281 278 271 263 264 262 258 265 271 273 271 277 276 276 276 272 266 258 249 253 260
95 105 109 99 89 84 47 29 6 338 339 340 341 334 322 309 302 300 302 297 293 286 302 307 300 289 271 264 265 259 264 264 266 270 270 272 273 270 268 266 264 253 246 251
97 89 81 70 58 51 40 27 19 17 12 3 354 350 333 335 329 318 311 288 291 294 312 309 301 289 278 268 264 259 261 262 264 271 270 267 269 270 267 271 264 257 249 245
95 89 84 70 67 56 44 37 32 27 15 17 10 351 334 330 333 330 311 302 307 311 312 310 299 290 285 272 260 252 255 256 263 270 273 266 265 265 266 270 275 265 258 260
77 79 74 66 68 64 48 40 34 26 17 9 3 358 347 336 333 324 318 306 315 321 318 309 300 291 290 286 266 260 255 249 264 278 283 267 260 267 271 281 285 289 289 289
80 75 69 59 56 57 46 31 22 18 10 360 353 346 339 329 325 323 317 324 315 312 313 307 305 304 299 292 283 275 254 253 268 294 342 328 282 276 289 296 299 301 300 298
86 77 73 65 58 44 27 11 5 5 359 349 348 341 341 334 325 321 317 316 317 315 311 307 304 303 302 294 284 271 244 199 230 324 332 345 330 324 323 318 309 305 302 300
87 80 66 55 44 29 14 1 353 352 349 345 342 341 339 332 323 323 325 323 322 322 318 325 328 336 337 349 5 7 79 113 53 9 4 356 346 336 327 321 315 311 308 306
81 74 73 56 42 23 7 355 347 346 345 341 339 338 335 333 330 330 330 335 339 346 351 352 1 8 17 23 32 35 14 33 34 16 30 9 347 337 328 322 316 313 309 307
71 58 53 45 27 10 360 353 348 343 343 342 335 341 343 344 344 350 349 351 353 356 359 4 10 15 22 22 24 29 27 23 21 15 7 4 350 336 327 321 316 312 310 309
Height
793 794 793 788 785 789 790 785 796 778 781 771 771 773 774 784 791 796 802 807 812 817 822 826 831 835 838 840 842 845 846 847 847 848 847 846 846 844 842 840 838 836 835 834
800 799 797 795 785 783 783 781 785 777 776 763 769 776 779 785 790 793 798 803 808 813 816 820 825 830 833 835 838 841 842 843 843 843 843 842 841 840 838 836 834 832 831 831
795 807 805 811 787 778 776 773 777 780 768 768 776 778 777 781 786 789 793 798 802 805 811 816 821 825 828 831 834 836 837 838 838 838 838 837 836 835 833 831 830 829 827 827
804 820 812 770 778 777 773 771 767 768 769 771 771 774 777 777 781 785 788 792 796 802 807 813 817 821 824 828 830 832 833 833 833 833 833 832 830 829 828 827 826 825 824 823
808 797 781 767 778 780 779 767 763 765 765 772 781 780 773 775 776 778 783 788 793 798 803 808 812 817 822 825 827 828 829 829 829 828 827 826 825 824 824 823 821 820 821 820
812 800 799 774 778 779 778 777 768 770 770 776 780 780 762 768 773 777 780 785 790 794 799 803 808 812 818 820 823 824 825 825 824 823 822 820 819 819 818 818 817 817 817 818
803 800 784 774 779 780 787 781 769 771 770 774 775 767 769 771 771 775 778 783 787 791 795 801 805 809 813 817 819 821 821 821 821 818 816 814 813 813 812 812 812 813 813 814
811 805 798 778 782 784 772 770 771 771 770 772 769 771 774 775 775 776 777 784 788 792 796 800 807 813 811 814 816 817 817 816 815 813 811 810 808 808 808 808 809 810 810 811
783 775 772 774 770 769 773 773 771 772 769 771 770 768 772 774 776 778 781 786 790 795 803 806 808 810 811 812 814 814 813 812 811 810 808 805 804 803 804 805 805 806 807 807
785 768 770 770 770 769 770 771 768 767 767 767 767 765 768 774 778 781 785 791 795 796 802 807 809 812 812 812 812 812 811 810 809 806 803 801 800 800 801 801 802 802 803 802
777 769 766 765 767 767 767 767 766 765 766 766 766 766 769 776 781 785 792 794 799 801 805 807 811 813 813 811 810 810 809 808 806 802 800 800 798 797 797 798 798 798 798 799
771 759 765 763 764 767 767 765 765 767 765 769 769 769 774 783 791 794 797 801 803 807 809 810 811 811 811 810 807 805 806 805 803 799 797 797 795 794 793 793 794 795 795 796
767 768 768 767 768 771 769 773 772 773 773 775 778 781 785 790 797 800 802 806 809 811 809 809 808 808 807 806 804 803 803 801 799 795 794 793 791 791 789 788 789 790 790 791
773 771 765 772 774 777 777 780 782 783 786 788 790 795 799 801 802 804 806 807 807 807 807 808 807 805 804 802 802 801 800 797 795 793 791 789 787 787 786 786 785 784 784 785
779 777 777 781 783 784 784 785 789 794 797 799 800 801 803 804 804 805 805 804 806 805 803 803 803 801 800 799 798 797 795 793 791 789 787 785 784 783 781 781 780 779 779 779
784 783 785 787 790 792 794 796 798 801 803 805 803 803 802 802 803 802 802 802 802 800 800 799 798 797 797 795 794 791 789 788 788 786 783 780 779 777 776 775 774 774 773 773
782 786 791 792 795 799 800 802 803 804 804 803 802 802 802 802 802 802 802 800 799 797 796 794 792 792 791 788 787 786 784 782 781 781 777 775 773 772 771 769 767 766 766 766
791 793 795 798 800 802 803 804 804 804 804 805 804 803 802 801 799 798 798 797 794 791 788 786 784 783 783 782 780 779 778 776 775 773 771 769 767 766 764 762 760 759 758 759
799 800 802 802 804 805 806 807 807 806 805 804 803 802 801 800 798 796 795 793 790 788 783 782 780 778 775 775 774 773 771 769 768 765 763 761 760 758 756 754 752 751 750 750
803 804 805 807 808 808 808 808 807 806 806 804 803 801 800 799 798 795 793 792 787 784 780 777 775 772 769 767 766 765 764 762 760 758 756 753 752 750 748 747 745 743 742 742
806 808 808 809 809 810 809 809 808 807 807 805 804 803 801 798 796 794 790 786 783 781 777 774 771 767 765 762 760 757 756 754 753 751 748 745 744 743 741 740 738 737 736 735
807 809 809 809 810 810 811 810 809 808 807 806 805 804 800 798 795 792 790 786 781 778 776 771 766 762 759 756 752 749 747 745 745 744 741 738 736 735 734 734 733 732 731 730
809 810 811 812 813 814 814 813 812 811 809 808 806 804 801 799 796 791 784 783 780 775 771 766 760 756 751 747 744 741 739 737 738 738 735 733 729 730 730 730 729 729 728 726
811 813 814 815 816 816 815 815 813 812 810 808 806 804 800 795 793 791 786 780 775 770 765 759 753 748 743 738 735 732 730 730 731 733 732 731 731 730 729 728 727 726 724 721
815 816 817 818 817 817 817 816 814 812 810 808 806 802 799 797 794 786 783 778 772 766 759 753 746 741 735 732 730 730 728 722 726 730 730 730 730 730 728 727 725 723 721 718
817 817 819 820 820 820 819 817 815 812 809 807 805 802 799 795 791 786 781 776 771 765 760 755 749 745 741 738 735 735 736 730 731 733 729 729 730 729 727 725 723 720 717 714
819 820 820 821 821 821 820 817 815 812 810 808 805 801 798 794 790 786 782 777 772 768 764 759 754 750 746 744 742 739 738 738 735 733 732 729 728 728 726 723 720 717 713 709